Lid_Strength_Index
13 14 14 15 15 15 15 16 15 15 15 15 15 15 15 15 15 14 14 9 7 5 4 3 2 2 1 1 1 1 0 0 0 -0 -0 -0 -0 -0 -0 -1 -2 -1 -1
13 14 15 15 16 16 16 16 16 16 16 16 16 16 15 15 15 15 14 14 8 7 5 4 4 3 2 2 2 1 1 -0 0 0 1 0 -0 -1 -1 -1 -2 -2 -2
14 14 14 16 16 16 16 16 16 17 17 16 17 16 16 15 15 15 14 14 13 9 6 5 4 3 3 2 2 2 1 2 2 1 2 2 1 0 -1 -1 -1 -1 -2
14 14 15 16 16 16 16 17 17 17 17 17 17 17 16 16 15 15 15 15 14 13 10 8 7 5 4 3 3 2 3 1 1 2 3 3 2 2 2 1 -0 -0 -1
14 14 15 16 16 17 17 17 18 18 18 18 17 17 17 16 16 15 16 15 15 15 15 11 10 9 7 6 5 4 3 2 3 4 3 2 2 3 2 2 1 1 1
15 15 15 16 16 17 17 18 18 18 18 18 17 17 17 17 17 17 16 15 16 15 15 15 15 13 9 8 7 6 5 4 4 4 4 4 4 3 2 2 1 2 2
15 15 16 16 17 17 18 18 18 18 18 18 18 18 18 17 17 17 17 17 16 16 16 16 15 15 14 10 8 6 5 5 5 5 5 5 4 4 4 3 3 2 2
15 15 16 16 17 18 18 18 18 18 18 19 19 19 19 19 18 17 17 17 17 17 16 16 16 15 15 15 11 8 6 6 5 5 6 6 5 5 4 4 3 3 2
16 16 16 16 17 17 18 18 18 18 19 19 19 18 20 20 20 18 18 17 18 17 17 17 16 15 15 15 13 11 9 8 8 7 7 7 6 6 5 5 4 4 3
16 16 16 17 17 18 18 18 18 19 18 19 18 18 19 19 20 21 19 18 18 18 18 17 17 16 15 15 12 11 11 10 10 9 9 8 7 7 6 5 5 4 4
16 16 17 17 18 17 18 18 19 19 19 19 19 19 20 20 20 20 21 20 19 19 18 18 17 17 16 15 14 13 12 12 11 11 10 10 9 8 7 6 5 5 4
17 17 17 17 17 18 18 18 18 19 19 19 19 19 19 20 20 20 21 21 21 19 19 18 18 17 16 16 15 14 13 13 12 12 11 11 10 10 9 8 7 6 5
17 17 17 17 18 18 18 18 18 19 19 19 19 20 19 20 19 19 20 21 21 19 19 19 18 17 16 17 17 15 15 14 14 13 12 12 11 11 10 9 8 7 6
16 17 17 18 18 18 18 18 18 19 19 19 19 19 19 19 19 19 19 20 21 20 19 19 18 18 18 18 17 16 18 16 14 13 13 12 12 11 11 10 9 8 8
16 17 17 18 18 18 18 18 18 19 19 19 19 19 19 19 19 19 19 19 20 22 21 20 19 18 18 18 17 18 18 17 15 14 13 13 12 11 11 10 10 9 8
17 18 18 18 18 18 18 18 19 19 19 19 19 19 19 19 19 19 19 19 20 22 23 20 19 19 19 18 17 18 18 16 16 15 14 13 12 11 11 10 10 10 9
17 18 17 18 18 18 18 18 19 19 19 20 20 20 20 20 21 21 21 21 21 21 23 21 20 20 20 20 19 18 18 18 17 14 13 12 11 11 11 11 10 10 10
17 17 17 18 18 18 18 18 19 19 20 20 20 20 21 21 22 22 22 22 22 22 23 24 22 21 21 21 20 20 18 17 17 15 13 11 11 11 11 11 11 10 10
17 17 17 18 18 18 18 18 19 19 20 20 20 20 21 21 23 23 23 23 23 22 22 23 23 21 21 20 20 19 18 17 16 14 13 13 12 12 11 11 11 11 11
17 17 17 17 17 18 18 18 19 19 20 19 19 20 21 21 22 23 23 23 23 24 23 23 23 22 21 19 19 18 18 17 17 15 14 14 13 12 12 11 12 12 12
16 17 17 17 18 18 18 18 19 19 20 20 20 20 21 21 20 21 22 23 23 24 23 23 22 21 20 19 19 18 18 18 17 16 16 15 14 14 14 12 13 12 12
17 17 17 17 18 18 15 15 17 19 19 20 21 21 21 20 19 18 18 19 21 25 28 26 21 20 19 19 18 18 18 18 19 15 16 17 15 16 15 14 12 11 10
17 17 17 18 18 18 15 14 15 19 19 20 20 21 21 21 20 19 17 17 18 17 19 20 19 18 19 18 18 18 17 17 18 17 18 19 17 18 15 14 12 11 11
17 18 17 17 17 18 15 14 15 18 19 20 21 21 21 21 21 20 19 18 18 18 17 17 18 18 18 17 17 16 17 19 19 18 17 21 18 19 16 15 12 11 11
18 17 17 17 17 18 15 13 15 19 19 20 20 20 20 21 19 17 20 21 20 19 17 15 15 14 14 14 15 19 24 25 23 21 18 20 19 19 17 16 15 12 12
17 17 18 17 18 18 15 14 15 19 20 21 20 20 19 19 17 16 20 21 23 20 19 20 18 18 18 18 17 18 22 28 24 25 17 20 19 18 20 17 15 15 15